TimeHST,TemperatureF,Dew PointF,Humidity,Sea Level PressureIn,VisibilityMPH,Wind Direction,Wind SpeedMPH,Gust SpeedMPH,PrecipitationIn,Events,Conditions,WindDirDegrees,DateUTC
12:08 AM,73.4,66.2,78,30.12,10.0,ENE,3.5,-,N/A,,Mostly Cloudy,60,2013-06-24 10:08:00
12:15 AM,73.4,66.2,78,30.12,10.0,ENE,3.5,-,N/A,,Overcast,60,2013-06-24 10:15:00
12:56 AM,73.0,66.9,81,30.12,10.0,ESE,3.5,-,N/A,,Mostly Cloudy,120,2013-06-24 10:56:00
1:56 AM,73.0,66.0,79,30.12,10.0,Calm,Calm,-,N/A,,Clear,0,2013-06-24 11:56:00
2:56 AM,72.0,66.0,81,30.10,10.0,ENE,4.6,-,N/A,,Clear,60,2013-06-24 12:56:00
3:56 AM,72.0,66.0,81,30.10,10.0,ESE,3.5,-,N/A,,Mostly Cloudy,110,2013-06-24 13:56:00
4:26 AM,73.4,66.2,78,30.09,10.0,ENE,3.5,-,N/A,,Overcast,70,2013-06-24 14:26:00
4:37 AM,73.4,66.2,78,30.09,10.0,East,3.5,-,N/A,,Overcast,90,2013-06-24 14:37:00
4:56 AM,73.0,64.9,76,30.11,10.0,Calm,Calm,-,N/A,,Scattered Clouds,0,2013-06-24 14:56:00
5:56 AM,73.0,66.0,79,30.12,10.0,Calm,Calm,-,N/A,,Mostly Cloudy,0,2013-06-24 15:56:00
6:56 AM,73.0,66.0,79,30.13,10.0,Calm,Calm,-,N/A,,Partly Cloudy,0,2013-06-24 16:56:00
7:56 AM,77.0,64.9,66,30.13,10.0,NE,3.5,-,N/A,,Overcast,50,2013-06-24 17:56:00
8:56 AM,77.0,68.0,74,30.13,10.0,South,6.9,-,N/A,,Mostly Cloudy,190,2013-06-24 18:56:00
9:56 AM,79.0,68.0,69,30.12,10.0,SW,9.2,-,N/A,,Scattered Clouds,220,2013-06-24 19:56:00
10:56 AM,81.0,68.0,65,30.12,10.0,SW,11.5,-,N/A,,Overcast,230,2013-06-24 20:56:00
11:56 AM,80.1,66.9,64,30.12,10.0,SW,9.2,-,N/A,,Overcast,220,2013-06-24 21:56:00
12:56 PM,82.9,66.9,58,30.11,10.0,West,9.2,-,N/A,,Mostly Cloudy,260,2013-06-24 22:56:00
1:56 PM,82.9,68.0,60,30.10,10.0,West,12.7,-,N/A,,Scattered Clouds,260,2013-06-24 23:56:00
2:56 PM,82.0,66.9,60,30.08,10.0,West,5.8,-,N/A,,Clear,270,2013-06-25 00:56:00
3:56 PM,82.0,66.9,60,30.07,10.0,SSW,8.1,-,N/A,,Partly Cloudy,210,2013-06-25 01:56:00
4:56 PM,82.0,66.0,58,30.06,10.0,SW,9.2,-,N/A,,Clear,230,2013-06-25 02:56:00
5:56 PM,81.0,68.0,65,30.07,10.0,WSW,10.4,-,N/A,,Mostly Cloudy,250,2013-06-25 03:56:00
6:56 PM,79.0,66.0,64,30.07,10.0,Calm,Calm,-,N/A,,Scattered Clouds,0,2013-06-25 04:56:00
7:56 PM,78.1,62.1,58,30.08,10.0,NNE,6.9,-,N/A,,Clear,30,2013-06-25 05:56:00
8:56 PM,77.0,64.0,64,30.11,10.0,Calm,Calm,-,N/A,,Mostly Cloudy,0,2013-06-25 06:56:00
9:56 PM,73.9,62.1,66,30.11,10.0,Calm,Calm,-,N/A,,Clear,0,2013-06-25 07:56:00
10:56 PM,75.0,62.1,64,30.11,10.0,North,4.6,-,N/A,,Clear,10,2013-06-25 08:56:00
11:56 PM,70.0,60.1,71,30.11,10.0,ESE,3.5,-,N/A,,Clear,120,2013-06-25 09:56:00